STARLINK-11260 [DTC]

Last updated on Sun Oct 06 2024 00:02:04 GMT+0000 (Coordinated Universal Time)

1 60997U 24158H 24279.41311049 -.00007109 11167-4 -88303-5 0 9994 2 60997 53.1474 323.4625 0001094 14.8696 345.2365 15.95300398 5972
UTC large
Height (km)
Speed (km/s)
/
Latitude / Longitude
Inclination (degrees)
Orbital Period (minutes)
Azimuth
Elevation
Range (km)
Doppler Factor

Next 0 passes for location: London (51.5072 / 0.1276)

Sorry there are no passes over London.